Regional Weather Roundup
Issued by NWS Upton, NY

Current Version | Previous Version | Graphics & Text | Print | Product List | Glossary Off
Versions: 1 2 3 4 5 6 7 8 9 10 11 12 13 14 15 16 17 18 19 20 21 22 23 24 25 26 27

000
ASUS41 KOKX 161708
RWROKX

REGIONAL WEATHER ROUNDUP
NATIONAL WEATHER SERVICE NEW YORK NY
100 PM EDT WED AUG 16 2017

NOTE: "FAIR" INDICATES FEW OR NO CLOUDS BELOW 12,000 FEET WITH NO
SIGNIFICANT WEATHER AND/OR OBSTRUCTIONS TO VISIBILITY.

NYZ071-072-176-178-NJZ106-104-161800-
NEW YORK CITY METRO AREA

CITY           SKY/WX    TMP DP  RH WIND       PRES   REMARKS
Central Park   SUNNY     84  60  44 VRB5      29.99S
Bronx Bot Gard   N/A     82  61  47 NW17      29.96F
LaGuardia APRT PTSUNNY   84  63  49 N9        29.95S
Kennedy INTL   MOSUNNY   86  63  45 N9        29.96S
Breezy Point     N/A     81 N/A N/A NW9         N/A
Newark/Liberty PTSUNNY   82  60  47 NW10G20   29.95F
Teterboro      SUNNY     86  60  41 N9G17     29.94F
$$

NYZ177-179-078>081-161800-
LONG ISLAND NEW YORK

CITY           SKY/WX    TMP DP  RH WIND       PRES   REMARKS
Jones Beach      N/A     81 N/A N/A NW10G17     N/A
Matinecock PT    N/A     81 N/A N/A N9          N/A
Farmingdale    SUNNY     83  62  49 VRB7      29.96S
MacArthur/ISP  MOSUNNY   84  61  45 N12       29.95S
Shirley        SUNNY     85  64  49 N12G17    29.95F
Mt Sinai Harb    N/A     82 N/A N/A NW6G12      N/A
Westhampton    SUNNY     83  63  50 NW8       29.95F
East Hampton   FAIR      80  65  60 N5        29.94S
Montauk          N/A     80  67  64 W6        29.95S
$$

NYZ052-065-067-161800-
HUDSON VALLEY

CITY           SKY/WX    TMP DP  RH WIND       PRES   REMARKS
White Plains   MOSUNNY   83  61  47 N12G18    29.97S
Larchmont Harb   N/A     79 N/A N/A N5G12       N/A
Croton On Huds   N/A     86 N/A N/A NW7         N/A
Newburgh       PTSUNNY   81  66  61 N12       29.99F
Montgomery     MOSUNNY   83  62  49 NW10G18   29.97F
Poughkeepsie   MOSUNNY   80  63  55 VRB7      29.97S
Albany         PTSUNNY   80  62  54 N9        29.99S
$$

NJZ001-105-106-008-010-013-015-019>022-104-161800-
NEW JERSEY

CITY           SKY/WX    TMP DP  RH WIND       PRES   REMARKS
Newark/Liberty PTSUNNY   82  60  47 NW10G20   29.95F
Teterboro      SUNNY     86  60  41 N9G17     29.94F
Caldwell       SUNNY     83  64  52 MISG      29.96F
Somerville     SUNNY     85  62  46 N9        29.95F
Linden         FAIR      85  60  43 N9G16     29.96S
Perth Amboy      N/A     81 N/A N/A N8          N/A
Sussex         MOSUNNY   81  65  58 N7        29.98F
Andover          N/A     80  63  55 N10G17    29.99F
Trenton        CLOUDY    84  68  58 NW5       29.97S
Millville      CLOUDY    86  74  67 VRB5      29.97F HX  94
Atlantic City  MOSUNNY   85  71  63 VRB3      29.97F HX  90
Wrightstown    MOSUNNY   83  69  62 W3        29.94F
Toms River     CLOUDY    83  69  62 W5        29.97F
Belmar         CLOUDY    84  67  56 W6        29.97F
$$

PAZ047>061-062-071-161800-
EASTERN PENNSYLVANIA

CITY           SKY/WX    TMP DP  RH WIND       PRES   REMARKS
Philadelphia   PTSUNNY   83  67  58 S5        29.98F
Allentown      CLOUDY    85  66  53 N9        29.98S
Scranton       MOSUNNY   79  64  60 N7        30.03S
$$

CTZ002-004>006-009-010-012-RIZ004-006-007-MAZ004-011-015-161800-
SOUTHERN NEW ENGLAND
 IN CT

CITY           SKY/WX    TMP DP  RH WIND       PRES   REMARKS
Bradley INTL   MOSUNNY   83  60  45 N13       29.95S
Hartford       MOSUNNY   83  60  45 N15       29.93F
Danbury        PTSUNNY   81  63  54 N10       29.99R
Wtrbury/Oxford MOSUNNY   80  64  58 N13       29.98S
Norwalk Harbor   N/A     79 N/A N/A N7          N/A
Bridgeport     SUNNY     84  60  44 NW14      29.95R
Meriden        PTSUNNY   83  63  50 N9        29.94F
New Haven      MOSUNNY   85  59  41 N12G18    29.94S
Chester        NOT AVBL
Groton         PTSUNNY   78  68  71 S9        29.92S
Wilimantic     SUNNY     83  62  49 NW8       29.94S

 IN RI

CITY           SKY/WX    TMP DP  RH WIND       PRES   REMARKS
Providence     MOSUNNY   83  64  52 NW7G18    29.93R
Block Island     N/A     79  68  69 W8        29.94S
Westerly       MOSUNNY   84  64  50 VRB6      29.94R
 IN MA

CITY           SKY/WX    TMP DP  RH WIND       PRES   REMARKS
Boston         MOSUNNY   83  58  42 N9G22     29.92R
Worcester      MOSUNNY   77  57  50 NW9       29.98R
Westfield      SUNNY     83  60  45 NW14      29.95S
Provincetown   SUNNY     74  65  73 N10       29.93R
Nantucket      SUNNY     78  64  61 N18       29.91S
$$

ANZ330-335-338-340-345-350-353-355-161800-
COASTAL MARINE OBSERVATIONS


STATION/POSITION TIME  SKY/WX   TEMP    WIND        PRES    VSBY  WAVE
                                AIR SEA DIR/SP/G                  HT/PER
                 (UTC)          (F)     (DEG/KT/KT) (MB)    (MI)  (FT/S)
NY HARB ENTRANCE 1550            75 75  290/  8/ 10 1014.3          5/11
GREAT SOUTH BAY  1615            79 78  330/  6/ 14   N/A
23 SSW MONTAUK P 1550            73 72              1014.3          5/13
15 E BARNEGAT LI 1630               76                N/A           4/10
HUDSON CANYON    1550            73 74  360/  8/ 10 1013.9          4/ 9
KINGS POINT      1630            79 73   40/  9/ 11 1014.5
EXECUTION ROCKS  NOT AVBL
WESTERN LI SOUND NOT AVBL
CENTRAL LI SOUND NOT AVBL
EASTERN LI SOUND NOT AVBL
ROBBINS REEF     1630                   350/ 11/ 16 1014.9
$$


>>>>>>>>>>>>>>>>>>>>>>>>>>>> KEY <<<<<<<<<<<<<<<<<<<<<<<<<<<
>                                                          <
>     SKY/WX - Sky Condition/Present Weather               <
>     TMP    - Temperature in Fahrenheit                   <
>     DP     - Dew Point in Fahrenheit                     <
>     RH     - Relative Humidity in Percent                <
>     WIND   - Direction (from) and Speed in MPH           <
>     PRES   - Mean Sea Level Pressure (inches of Hg)      <
>     WCI    - Wind Chill Index                            <
>     VSB    - VISIBILITY IN MILES                         <
>     HX     - HEAT INDEX                                  <
>     TC     - TEMPERATURE IN CELSIUS                      <
>     VRB    - VARIABLE WIND DIRECTION                     <
>                                                          <
>>>>>>>>>>>>>>>>>>>>>>>>>>>> KEY <<<<<<<<<<<<<<<<<<<<<<<<<<<




USA.gov is the U.S. government's official web portal to all federal, state and local government web resources and services.